DW4892 Weather Reports


Display with metric or nautical units.
time (UTC)temp
F
wind
direction
speed
MPH
gust
MPH
rain 1hr
in
rain 24hr
in
rain mn
in
humidity
%
barometer
mb
20260904110034 64 283 2.0 6.0 0.00 0.00 0.00 40 999.8
20260904104515 63 281 1.0 4.0 0.00 0.00 0.00 43 999.6
20260904103017 63 288 0.0 2.0 0.00 0.00 0.00 45 999.3
20260904101527 63 286 0.0 2.0 0.00 0.00 0.00 43 999.0
20260904100021 64 281 0.0 3.0 0.00 0.00 0.00 47 998.9
20260904094520 64 279 0.0 2.0 0.00 0.00 0.00 49 998.6
20260904093013 64 246 0.0 1.0 0.00 0.00 0.00 50 998.6
20260904091527 64 212 0.0 1.0 0.00 0.00 0.00 50 998.5
20260904090025 63 224 0.0 1.0 0.00 0.00 0.00 52 998.3
20260904084520 64 233 0.0 1.0 0.00 0.00 0.00 53 998.3
20260904083031 65 158 0.0 2.0 0.00 0.00 0.00 57 998.2
20260904081528 66 247 0.0 1.0 0.00 0.00 0.00 51 998.2
20260904080023 68 214 0.0 3.0 0.00 0.00 0.00 46 998.3
20260904074518 69 231 0.0 2.0 0.00 0.00 0.00 44 998.3
20260904073029 70 194 1.0 4.0 0.00 0.00 0.00 44 998.4
20260904071557 70 211 1.0 5.0 0.00 0.00 0.00 43 998.5
20260904070041 70 227 1.0 5.0 0.00 0.00 0.00 43 998.9
20260904064518 71 190 0.0 3.0 0.00 0.00 0.00 41 998.9
20260904063015 71 154 1.0 4.0 0.00 0.00 0.00 40 998.9
20260904061540 72 317 1.0 4.0 0.00 0.00 0.00 40 999.1
20260904060023 72 202 1.0 3.0 0.00 0.00 0.00 39 999.2
20260904054530 73 164 1.0 6.0 0.00 0.00 0.00 38 999.3
20260904053015 73 164 1.0 8.0 0.00 0.00 0.00 37 999.4
20260904051531 74 190 1.0 3.0 0.00 0.00 0.00 36 999.6
20260904050024 75 242 1.0 6.0 0.00 0.00 0.00 35 999.8
20260904044527 75 236 1.0 6.0 0.00 0.00 0.00 33 1000.1
20260904043031 74 171 2.0 6.0 0.00 0.00 0.00 32 1000.1
20260904041527 71 263 0.0 2.0 0.00 0.00 0.00 34 999.9
20260904040022 72 267 0.0 2.0 0.00 0.00 0.00 32 999.8
20260904034538 74 180 0.0 3.0 0.00 0.00 0.00 29 999.6
20260904033015 75 171 0.0 3.0 0.00 0.00 0.00 28 999.4
20260904031528 75 277 1.0 3.0 0.00 0.00 0.00 28 999.2
20260904030025 76 250 0.0 4.0 0.00 0.00 0.00 28 999.1
20260904024519 75 119 0.0 2.0 0.00 0.00 0.00 28 998.9
20260904023012 75 280 1.0 3.0 0.00 0.00 0.00 28 998.8
20260904021529 78 267 1.0 4.0 0.00 0.00 0.00 26 998.4
20260904020023 79 217 3.0 8.0 0.00 0.00 0.00 24 998.0
20260904014518 80 204 2.0 5.0 0.00 0.00 0.00 24 997.8
20260904013015 81 190 2.0 6.0 0.00 0.00 0.00 23 997.5
20260904011554 82 215 3.0 9.0 0.00 0.00 0.00 22 997.5
20260904010027 83 194 3.0 10.0 0.00 0.00 0.00 21 997.6
20260904004521 83 222 5.0 10.0 0.00 0.00 0.00 21 997.8
20260904003054 84 144 3.0 8.0 0.00 0.00 0.00 22 997.9
20260904001529 85 190 3.0 9.0 0.00 0.00 0.00 21 997.9
20260904000036 85 207 5.0 12.0 0.00 0.00 0.00 20 998.1
20260903234535 86 202 2.0 5.0 0.00 0.00 0.00 17 997.9
20260903233020 86 201 1.0 6.0 0.00 0.00 0.00 17 998.0
20260903231530 86 171 3.0 10.0 0.00 0.00 0.00 16 998.0
20260903230036 86 240 1.0 9.0 0.00 0.00 0.00 18 998.2
20260903224523 86 216 2.0 8.0 0.00 0.00 0.00 17 998.3
20260903223057 87 175 2.0 5.0 0.00 0.00 0.00 20 998.2
20260903221528 87 338 2.0 9.0 0.00 0.00 0.00 20 998.2
20260903220025 88 250 3.0 6.0 0.00 0.00 0.00 18 998.6
20260903214523 88 197 2.0 4.0 0.00 0.00 0.00 19 998.7
20260903213026 89 202 2.0 8.0 0.00 0.00 0.00 20 998.8
20260903211530 87 154 2.0 8.0 0.00 0.00 0.00 20 999.1
20260903210025 89 175 4.0 10.0 0.00 0.00 0.00 20 999.2
20260903204522 89 173 3.0 8.0 0.00 0.00 0.00 19 999.3
20260903203027 89 161 1.0 8.0 0.00 0.00 0.00 25 999.4
20260903201512 88 174 2.0 5.0 0.00 0.00 0.00 20 999.7
20260903200024 87 291 2.0 10.0 0.00 0.00 0.00 23 999.7
20260903194517 89 202 2.0 8.0 0.00 0.00 0.00 21 999.9
20260903193023 90 71 1.0 7.0 0.00 0.00 0.00 22 1000.0
20260903191529 88 21 2.0 7.0 0.00 0.00 0.00 21 1000.2
20260903190024 87 47 1.0 5.0 0.00 0.00 0.00 22 1000.4
20260903184521 87 301 1.0 5.0 0.00 0.00 0.00 26 1000.6
20260903183014 85 132 2.0 5.0 0.00 0.00 0.00 25 1001.2
20260903181529 87 203 3.0 6.0 0.00 0.00 0.00 26 1001.1
20260903180026 85 204 1.0 6.0 0.00 0.00 0.00 25 1001.6
20260903174524 83 142 1.0 8.0 0.00 0.00 0.00 27 1001.8
20260903173019 83 333 1.0 6.0 0.00 0.00 0.00 29 1001.9
20260903171515 82 180 2.0 6.0 0.00 0.00 0.00 27 1002.0
20260903170029 81 132 1.0 8.0 0.00 0.00 0.00 26 1002.0
20260903164527 82 349 1.0 9.0 0.00 0.00 0.00 31 1002.0
20260903163019 80 200 1.0 5.0 0.00 0.00 0.00 29 1001.9
20260903161514 80 175 2.0 6.0 0.00 0.00 0.00 30 1002.0
20260903160034 79 319 1.0 5.0 0.00 0.00 0.00 30 1002.2
20260903154534 77 162 1.0 4.0 0.00 0.00 0.00 33 1002.2
20260903153027 75 156 1.0 4.0 0.00 0.00 0.00 37 1002.3
20260903151520 74 131 1.0 4.0 0.00 0.00 0.00 38 1002.5
20260903150034 71 156 1.0 4.0 0.00 0.00 0.00 40 1002.7
20260903144542 70 149 1.0 4.0 0.00 0.00 0.00 41 1002.6
20260903143038 68 161 1.0 3.0 0.00 0.00 0.00 43 1002.7
20260903141518 67 257 0.0 2.0 0.00 0.00 0.00 45 1002.7
20260903140022 65 149 0.0 2.0 0.00 0.00 0.00 46 1002.5
20260903134529 64 150 1.0 3.0 0.00 0.00 0.00 48 1002.5
20260903133022 63 154 1.0 2.0 0.00 0.00 0.00 47 1002.3
20260903131520 62 173 0.0 2.0 0.00 0.00 0.00 48 1002.2
20260903130014 62 208 0.0 1.0 0.00 0.00 0.00 48 1002.1
20260903124534 61 221 0.0 1.0 0.00 0.00 0.00 48 1001.8
20260903123026 60 264 0.0 2.0 0.00 0.00 0.00 49 1001.6
20260903121529 60 218 0.0 2.0 0.00 0.00 0.00 50 1001.4
20260903120034 60 232 0.0 1.0 0.00 0.00 0.00 50 1001.3
20260903114531 61 169 1.0 3.0 0.00 0.00 0.00 49 1001.2
20260903113039 60 213 1.0 3.0 0.00 0.00 0.00 51 1001.2
20260903111520 60 246 0.0 3.0 0.00 0.00 0.00 52 1001.3